Valladolid Airport, Spain

3:56 PM CEST on June 25, 2017 (GMT +0200)
Villanubla

Weather History for LEVD - February, 2013

Change the Weather History Date:

Monday, February 18, 2013

  Actual Average Record
Temperature  
Mean Temperature 42 °F -  
Max Temperature 50 °F - - ()
Min Temperature 35 °F - - ()
Degree Days  
Heating Degree Days 22    
Moisture  
Dew Point 41 °F    
Average Humidity 89    
Maximum Humidity 100    
Minimum Humidity 66    
Precipitation  
Precipitation 0.00 in - - ()
Sea Level Pressure  
Sea Level Pressure 29.86 in    
Wind  
Wind Speed 4 mph ()    
Max Wind Speed 8 mph    
Max Gust Speed -    
Visibility 5.1 miles    
Events Fog    
T = Trace of Precipitation, MM = Missing Value Source: Averaged Metar Reports

Daily Weather History Graph

Daily Weather History Graph

Search for Another Location

Airport or City:

Trip Planner

Search our weather history database for the weather conditions in past years. The results will help you decide how hot, cold, wet, or windy it might be!

Date:

Astronomy

Feb. 18, 2013 Rise Set
Actual Time 8:10 AM CET 6:56 PM CET
Civil Twilight 7:42 AM CET 7:24 PM CET
Nautical Twilight 7:09 AM CET 7:57 PM CET
Astronomical Twilight 6:37 AM CET 8:29 PM CET
Moon 12:29 PM CET (2/18) 2:39 AM CET (2/18)
Length of Visible Light 11h 42m
Length of Day
10h 45m
First Quarter, 56% of the Moon is Illuminated
Feb 18
First Quarter
Feb 25
Full
Mar 4
Last Quarter
Mar 11
New
Mar 19
First Quarter

Hourly Weather History & Observations

Time (CET) Temp. Windchill Dew Point Humidity Pressure Visibility Wind Dir Wind Speed Gust Speed Precip Events Conditions
7:00 AM 35.6 °F 31.7 °F 35.6 °F 100% 29.83 in 0.1 mi SW 4.6 mph - N/A Fog Fog
7:30 AM 39.2 °F 34.2 °F 39.2 °F 100% 29.86 in 0.1 mi SW 6.9 mph - N/A Fog Fog
8:00 AM 39.2 °F 34.2 °F 39.2 °F 100% 29.86 in 0.1 mi WSW 6.9 mph - N/A Fog Fog
8:30 AM 39.2 °F 34.2 °F 39.2 °F 100% 29.86 in 0.1 mi WSW 6.9 mph - N/A Fog Fog
9:00 AM 37.4 °F 32.1 °F 37.4 °F 100% 29.86 in 0.1 mi West 6.9 mph - N/A Fog Fog
9:30 AM 41.0 °F 38.0 °F 41.0 °F 100% 29.89 in 6.2 mi SW 4.6 mph - N/A   Overcast
10:00 AM 41.0 °F 38.0 °F 41.0 °F 100% 29.89 in 6.2 mi WSW 4.6 mph - N/A   Overcast
10:30 AM 41.0 °F 39.0 °F 41.0 °F 100% 29.89 in 6.2 mi SW 3.5 mph - N/A   Mostly Cloudy
11:00 AM 42.8 °F 40.1 °F 42.8 °F 100% 29.89 in 6.2 mi WSW 4.6 mph - N/A   Mostly Cloudy
11:30 AM 42.8 °F 41.1 °F 42.8 °F 100% 29.89 in 6.2 mi WSW 3.5 mph - N/A   Mostly Cloudy
12:00 PM 42.8 °F - 42.8 °F 100% 29.89 in 6.2 mi Variable 1.2 mph - N/A   Mostly Cloudy
12:30 PM 44.6 °F - 42.8 °F 93% 29.89 in 6.2 mi Calm Calm - N/A   Mostly Cloudy
1:00 PM 44.6 °F - 42.8 °F 93% 29.89 in 6.2 mi Variable 2.3 mph - N/A   Mostly Cloudy
1:30 PM 46.4 °F 44.3 °F 42.8 °F 87% 29.86 in 6.2 mi SE 4.6 mph - N/A   Mostly Cloudy
2:00 PM 46.4 °F 45.2 °F 42.8 °F 87% 29.86 in 6.2 mi East 3.5 mph - N/A   Mostly Cloudy
2:30 PM 46.4 °F 44.3 °F 42.8 °F 87% 29.86 in 6.2 mi ESE 4.6 mph - N/A   Mostly Cloudy
3:00 PM 48.2 °F - 41.0 °F 76% 29.86 in 6.2 mi Variable 2.3 mph - N/A   Mostly Cloudy
3:30 PM 48.2 °F - 41.0 °F 76% 29.86 in 6.2 mi Variable 1.2 mph - N/A   Mostly Cloudy
4:00 PM 50.0 °F - 41.0 °F 71% 29.86 in 6.2 mi Variable 1.2 mph - N/A   Mostly Cloudy
4:30 PM 50.0 °F - 41.0 °F 71% 29.83 in 6.2 mi SSE 1.2 mph - N/A   Scattered Clouds
5:00 PM 50.0 °F - 41.0 °F 71% 29.83 in 6.2 mi Variable 2.3 mph - N/A   Scattered Clouds
5:30 PM 50.0 °F - 39.2 °F 66% 29.83 in 6.2 mi Variable 2.3 mph - N/A   Scattered Clouds
6:00 PM 48.2 °F - 41.0 °F 76% 29.83 in 6.2 mi East 3.5 mph - N/A   Scattered Clouds
6:30 PM 48.2 °F - 41.0 °F 76% 29.83 in 6.2 mi ENE 3.5 mph - N/A   Scattered Clouds
7:00 PM 44.6 °F 40.7 °F 41.0 °F 87% 29.83 in 6.2 mi ENE 6.9 mph - N/A   Partly Cloudy
7:30 PM 44.6 °F 41.4 °F 41.0 °F 87% 29.83 in 6.2 mi ENE 5.8 mph - N/A   Partly Cloudy
8:00 PM 41.0 °F 37.1 °F 39.2 °F 93% 29.83 in 6.2 mi ENE 5.8 mph - N/A   Partly Cloudy
8:30 PM 41.0 °F 35.8 °F 37.4 °F 87% 29.83 in - ENE 8.1 mph - N/A   Clear
9:00 PM 41.0 °F 38.0 °F 37.4 °F 87% 29.83 in 6.2 mi East 4.6 mph - N/A   Partly Cloudy
9:30 PM 42.8 °F 38.6 °F 39.2 °F 87% 29.83 in 6.2 mi ENE 6.9 mph - N/A   Partly Cloudy